This is the latest recevied weather packets stored in our database for station/object VE1UHF-4. If no packets are shown the sender has not sent any weather packets the latest 10 day(s).
| Time | Temp. | Humidity | Pressure | Rain* | Wind** | Luminosity | Snow |
|---|---|---|---|---|---|---|---|
| 1777607093 | 11.67° C | 71% | 1007.1 hPa | 0 mm | - | - | - |
| 1777606193 | 11.67° C | 71% | 1007.2 hPa | 0 mm | - | - | - |
| 1777605293 | 11.67° C | 71% | 1007.4 hPa | 0 mm | - | - | - |
| 1777604392 | 11.67° C | 71% | 1007.6 hPa | 0 mm | - | - | - |
| 1777603491 | 11.67° C | 70% | 1007.9 hPa | 0 mm | - | - | - |
| 1777602591 | 12.22° C | 69% | 1008.2 hPa | 0 mm | - | - | - |
| 1777601691 | 12.22° C | 69% | 1008.5 hPa | 0 mm | - | - | - |
| 1777600789 | 12.22° C | 69% | 1008.4 hPa | 0 mm | - | - | - |
| 1777599889 | 12.78° C | 68% | 1008.5 hPa | 0 mm | - | - | - |
| 1777598989 | 12.78° C | 68% | 1008.7 hPa | 0 mm | - | - | - |
| 1777597188 | 13.33° C | 68% | 1008.5 hPa | 0 mm | - | - | - |
| 1777596287 | 13.33° C | 68% | 1008.7 hPa | 0 mm | - | - | - |
| 1777593585 | 14.44° C | 67% | 1008.6 hPa | 0 mm | - | - | - |
| 1777592685 | 14.44° C | 66% | 1008.8 hPa | 0 mm | - | - | - |
| 1777591784 | 15° C | 66% | 1008.6 hPa | 0 mm | - | - | - |
| 1777590884 | 15° C | 66% | 1008.8 hPa | 0 mm | - | - | - |
| 1777589983 | 15.56° C | 66% | 1008.9 hPa | 0 mm | - | - | - |
| 1777589083 | 15.56° C | 66% | 1008.8 hPa | 0 mm | - | - | - |
| 1777587281 | 16.11° C | 66% | 1008.6 hPa | 0 mm | - | - | - |
| 1777586381 | 16.67° C | 66% | 1008.8 hPa | 0 mm | - | - | - |
| 1777585480 | 16.67° C | 66% | 1008.7 hPa | 0 mm | - | - | - |
| 1777584580 | 16.67° C | 66% | 1008.7 hPa | 0 mm | - | - | - |
| 1777583679 | 17.22° C | 66% | 1008.9 hPa | 0 mm | - | - | - |
| 1777582779 | 17.22° C | 67% | 1009 hPa | 0 mm | - | - | - |
| 1777581878 | 17.22° C | 68% | 1009 hPa | 0 mm | - | - | - |
* Rain since midnight (hover to see other rain measurements)
** Current wind speed in m/s (hover to see current wind gust speed)